Theta_e
302 302 302 302 303 304 306 317 319 319 320 323 323 324 325 321 325 324 324 325 326 328 327 329 329 329 329 326 327 329 329 329 331 330 328 326 327 329 329 330 330 330 330 329
302 302 301 301 302 303 306 317 318 320 322 322 323 325 325 324 326 325 325 325 325 325 327 328 328 328 326 326 327 328 328 329 330 330 329 328 327 328 328 328 328 329 328 327
303 302 302 301 301 303 306 319 321 324 323 323 325 325 325 325 324 324 324 325 324 325 326 327 328 328 325 325 326 322 323 327 329 328 329 329 328 327 327 328 328 327 326 325
303 302 302 301 301 302 306 319 321 323 327 326 326 325 325 324 325 324 323 325 324 325 327 326 326 326 325 323 322 324 326 327 327 327 325 324 325 325 325 325 326 326 325 324
303 302 302 301 301 302 314 318 321 321 322 325 326 320 326 324 325 325 325 326 324 324 326 326 326 325 325 325 325 325 325 325 325 325 323 323 323 323 323 323 324 324 323 326
303 302 301 301 300 301 314 315 316 318 318 320 322 323 325 324 324 324 323 324 325 324 324 323 323 322 323 324 325 325 325 323 324 324 323 322 323 323 323 323 324 327 332 333
303 303 302 301 300 300 305 312 315 316 316 319 319 322 322 323 324 325 323 323 324 323 321 321 321 321 322 323 323 322 324 326 325 324 325 325 327 328 330 329 330 332 332 332
302 302 302 301 300 301 305 310 313 314 315 316 318 319 320 322 323 323 323 323 322 321 321 324 325 325 325 324 323 324 323 327 325 327 325 325 324 328 330 332 331 332 331 330
302 301 301 302 301 301 305 308 310 312 314 314 315 318 318 320 321 322 321 321 321 321 323 324 325 325 324 324 323 323 324 327 327 326 327 326 332 333 331 331 333 331 330 330
301 301 301 301 301 301 302 307 309 311 312 312 314 317 320 319 318 320 320 321 321 320 323 323 323 323 323 324 323 327 325 327 327 325 326 325 331 332 331 333 334 330 331 330
301 301 301 301 301 301 302 306 309 309 311 311 312 315 316 318 319 322 321 321 321 321 322 322 323 323 323 323 323 323 324 327 328 328 329 329 331 331 333 332 330 330 332 331
301 301 302 301 300 301 302 305 308 309 308 310 311 311 312 314 316 318 319 320 322 321 322 322 322 323 323 324 323 325 326 326 326 327 329 330 327 327 326 327 329 331 332 331
301 301 301 301 301 300 300 303 306 307 308 309 309 310 310 310 313 315 316 319 319 321 321 322 323 323 324 325 324 324 326 327 326 325 325 325 326 324 324 326 329 330 331 331
301 301 301 301 301 301 300 302 304 306 308 310 309 310 311 312 311 314 315 316 318 318 319 320 323 323 321 322 322 324 323 327 326 326 325 325 323 323 324 323 324 326 331 331
301 301 301 301 301 300 300 301 302 305 308 310 310 308 308 309 310 314 314 314 316 318 319 320 322 320 321 321 321 321 320 322 323 323 321 321 321 320 321 322 321 323 330 330
301 301 301 301 300 300 301 306 306 304 307 308 310 309 308 309 310 310 315 317 317 317 319 319 319 319 320 321 321 320 319 318 318 318 318 318 319 320 321 322 327 326 330 330
302 300 301 301 300 300 302 307 308 306 307 308 310 311 313 315 311 313 313 315 316 318 318 318 320 320 318 321 321 319 319 318 318 318 318 320 320 321 320 323 324 328 329 330
302 301 301 301 300 300 301 305 308 307 307 306 311 312 311 315 316 313 313 315 315 317 318 319 320 320 320 322 320 319 319 319 319 320 326 324 324 325 322 324 329 329 329 330
302 301 300 300 301 302 305 304 306 306 308 309 311 312 314 316 316 314 314 316 318 317 318 320 321 322 322 320 320 320 321 323 325 325 323 325 328 329 329 330 330 330 329 329
301 301 302 304 306 305 305 304 307 307 307 306 310 312 314 313 316 316 317 316 321 321 321 319 321 321 319 319 320 320 322 323 323 324 322 326 326 327 328 330 330 330 329 329
302 303 305 306 306 307 308 310 310 309 309 309 310 311 314 313 316 320 318 321 321 322 321 321 321 321 321 324 324 324 325 324 324 324 325 325 325 326 328 329 329 329 329 329
304 305 305 306 307 309 311 312 310 308 313 313 314 313 313 312 315 317 320 321 321 321 320 321 321 328 326 326 325 325 325 325 325 325 324 324 325 326 327 327 328 327 327 328
302 304 306 308 309 312 310 311 313 315 313 314 315 316 314 314 314 317 322 321 322 321 324 323 326 325 324 324 324 323 324 325 325 325 325 325 325 326 326 327 327 327 327 328
303 304 305 309 311 311 312 312 314 314 315 315 315 316 313 315 317 320 321 320 322 322 323 324 327 323 323 322 321 323 323 321 324 324 324 323 323 324 325 327 327 326 327 325
305 305 308 311 310 311 312 312 313 314 315 313 315 317 316 317 319 321 320 321 321 322 325 326 323 322 321 318 318 318 320 322 323 323 324 322 322 322 322 322 325 324 321 320
306 303 307 311 313 314 312 314 315 315 317 316 316 320 319 319 320 320 320 320 323 324 324 323 322 321 320 323 323 323 322 323 323 324 325 324 322 321 321 322 323 321 320 320
307 308 310 310 311 312 313 313 313 315 317 321 320 320 318 320 320 320 322 323 324 322 322 323 323 323 323 323 322 322 323 323 324 324 325 325 324 322 322 321 322 321 321 320
Wind_Speed
18 19 20 20 20 17 11 4 4 4 2 6 2 5 1 0 2 2 4 4 3 6 4 5 5 7 2 2 1 3 2 5 9 7 6 2 6 5 7 6 5 8 10 14
17 17 17 17 18 19 17 9 5 4 1 5 6 4 4 2 3 0 3 6 4 4 5 4 4 5 5 2 1 0 2 4 8 11 10 8 9 8 9 7 7 12 11 9
15 15 15 14 14 13 11 5 3 2 2 2 6 4 5 6 2 2 2 1 5 7 7 4 6 7 5 3 3 2 2 8 9 12 13 8 10 12 11 12 9 15 15 19
15 15 13 12 11 9 6 2 2 3 1 4 3 4 2 8 7 3 2 5 5 8 8 8 7 5 6 6 4 4 3 9 12 12 14 16 16 18 16 19 20 19 19 20
16 14 13 12 9 6 4 5 4 3 5 4 5 4 6 8 4 4 5 7 1 4 8 7 6 7 5 5 7 7 2 9 11 15 17 17 20 20 21 22 21 20 18 16
15 15 12 10 8 5 2 4 4 5 1 4 5 5 4 5 3 4 1 4 6 8 5 3 3 5 2 3 6 6 6 8 7 14 7 9 13 19 18 14 11 12 11 12
14 13 12 9 7 5 2 3 3 5 5 4 5 2 5 6 3 6 2 5 6 5 6 5 6 10 10 9 9 10 8 7 8 9 6 13 4 2 2 6 9 5 9 5
13 14 11 8 6 4 2 0 0 4 6 6 8 11 11 9 8 9 9 8 4 6 6 7 9 10 12 14 7 9 9 7 7 7 10 11 12 9 5 5 10 3 1 5
11 13 12 9 6 6 2 3 4 2 7 3 6 9 9 9 11 11 14 11 7 6 9 9 15 12 7 5 9 6 7 6 8 8 9 11 6 6 1 2 8 5 5 8
11 11 12 10 8 6 6 4 7 4 7 12 10 8 5 6 9 8 4 6 10 10 10 12 12 14 13 13 13 8 10 10 12 11 10 8 6 4 3 7 4 6 6 7
10 9 9 11 9 7 5 7 7 9 7 16 13 9 10 12 9 7 6 8 11 8 11 12 11 10 9 12 14 10 11 9 8 8 10 12 8 4 6 9 12 9 8 9
10 10 10 10 11 8 5 4 4 9 13 14 11 15 20 21 20 13 11 13 5 5 5 6 6 10 5 9 11 9 11 10 7 5 2 5 2 4 10 11 14 11 9 9
9 11 11 10 11 9 7 10 6 7 11 21 22 21 18 22 25 20 14 15 13 7 5 10 4 6 5 8 12 11 8 7 8 10 12 7 4 12 5 7 9 10 9 9
8 10 11 11 9 9 9 10 7 11 7 7 6 8 12 12 18 24 25 27 15 11 11 13 8 8 6 9 7 6 7 6 9 12 17 18 22 7 6 11 12 11 9 8
10 12 10 10 9 11 13 13 14 14 9 5 13 24 27 23 22 20 22 27 26 23 17 9 9 15 8 10 8 10 16 12 11 11 15 13 19 19 14 17 18 14 10 8
12 8 9 9 9 9 7 4 7 13 16 7 5 8 16 11 15 27 25 20 23 24 19 16 17 16 9 7 9 17 16 16 19 20 14 17 21 18 18 17 12 10 8 6
11 9 9 9 9 10 9 3 9 15 15 5 7 6 3 3 16 16 23 27 21 18 21 18 17 15 12 11 13 16 13 12 12 15 19 21 18 19 14 13 14 8 8 7
9 8 9 8 10 14 16 13 7 1 14 5 4 5 12 6 9 14 17 17 22 19 21 13 15 13 10 9 14 12 10 8 10 11 8 13 16 16 17 15 10 10 10 8
8 6 5 8 9 6 5 13 11 7 11 4 5 7 2 2 12 12 15 15 9 11 10 17 11 10 8 9 11 6 4 5 5 8 11 10 9 8 8 8 10 12 10 8
7 4 4 6 6 9 8 9 7 8 8 7 6 9 8 4 8 11 12 10 4 6 12 15 6 11 17 18 10 8 8 8 7 9 9 6 7 6 6 6 10 11 10 9
6 7 5 4 6 8 5 6 7 7 5 8 12 22 11 4 6 4 9 4 3 7 6 7 7 8 6 3 5 5 5 5 6 6 5 5 7 8 7 6 9 10 10 10
8 4 3 2 6 7 5 5 7 6 5 6 8 9 12 8 8 3 6 4 2 3 9 5 4 4 5 5 5 4 2 3 5 6 7 6 7 7 6 6 7 9 7 7
7 3 2 5 6 4 5 6 4 4 5 4 3 4 8 9 7 9 4 5 5 6 5 4 3 9 8 7 5 1 1 3 2 2 4 7 6 5 5 6 6 7 6 6
3 3 3 5 5 4 6 7 3 0 2 2 3 6 5 4 4 3 3 2 3 3 4 3 6 9 9 6 5 5 4 2 2 3 4 2 3 0 3 5 7 9 9 7
3 3 4 7 9 9 10 11 13 9 5 4 7 7 9 8 5 5 2 3 2 3 3 4 8 6 4 1 4 4 4 3 2 3 4 9 7 4 6 9 10 13 12 13
3 4 5 7 8 3 7 8 7 5 7 6 9 3 4 6 3 3 5 2 4 4 5 7 5 5 1 1 2 3 4 4 4 4 5 7 10 9 11 13 13 10 11 9
3 7 7 12 10 9 6 7 9 7 4 4 4 4 4 2 3 2 4 3 6 10 7 5 3 2 1 5 5 5 6 7 9 10 10 11 11 9 9 11 12 12 10 10
Wind_Direction
338 339 341 343 342 348 348 2 254 289 336 245 237 234 199 260 222 217 222 264 262 225 191 198 200 190 20 85 239 236 79 276 271 293 71 295 275 289 274 292 281 263 281 277
340 339 342 345 349 358 3 332 286 309 300 248 212 154 184 248 250 218 213 198 250 213 194 192 205 153 106 93 242 342 155 256 263 222 183 195 229 229 261 276 281 266 283 280
338 340 339 344 349 355 356 329 276 164 198 321 297 216 206 202 171 206 302 249 214 190 196 214 179 182 142 123 101 97 225 272 267 283 325 336 276 265 248 262 275 288 285 300
332 336 340 341 346 353 5 323 61 334 14 116 300 256 354 232 210 207 248 192 246 218 211 210 214 197 169 176 151 206 271 269 281 268 282 280 272 268 270 270 268 272 290 292
323 331 336 338 349 353 36 326 333 319 280 282 265 160 207 245 185 258 184 256 197 211 239 234 222 232 225 264 163 249 232 279 277 275 273 266 269 265 265 266 271 279 277 277
322 326 333 335 342 359 59 345 320 293 204 236 244 245 251 227 258 187 293 318 276 219 107 317 310 277 279 304 280 273 269 283 261 278 298 294 260 251 254 263 267 277 288 336
321 317 323 329 327 349 33 341 315 271 258 245 259 315 268 239 263 299 259 295 253 52 322 285 249 240 238 239 241 247 247 242 260 265 277 254 66 95 328 280 288 276 281 333
312 319 320 318 297 290 340 337 163 279 268 285 270 253 256 253 250 262 273 262 291 304 279 240 233 234 237 240 244 214 222 230 257 253 250 286 268 183 230 255 297 28 309 327
306 318 324 324 308 246 256 278 255 225 296 254 284 275 269 268 256 250 250 248 270 276 257 228 240 235 241 204 174 218 199 240 254 250 271 277 66 121 133 306 253 116 342 331
289 294 309 318 320 277 240 229 204 222 253 266 272 269 327 283 267 274 284 244 240 231 242 240 238 240 234 238 236 184 211 228 238 239 252 263 67 108 147 244 40 344 323 318
301 278 293 313 321 315 247 201 232 219 247 265 264 267 266 255 244 272 65 256 213 238 235 246 245 243 229 230 252 248 235 233 225 235 257 249 113 161 259 354 321 297 296 305
298 281 278 296 313 309 273 231 230 241 242 256 271 260 249 250 256 283 264 264 309 312 267 236 261 241 240 247 250 187 246 244 298 247 9 95 320 322 315 299 285 285 284 296
290 282 270 280 301 287 304 237 243 250 270 284 265 265 264 249 244 238 252 247 248 248 294 318 277 258 262 222 234 250 203 231 248 258 241 243 274 311 291 328 312 289 284 294
261 277 267 272 288 294 295 256 228 233 266 275 283 281 258 256 236 233 233 244 258 263 269 266 258 243 192 259 279 279 274 161 244 249 260 281 278 285 297 318 313 307 273 282
254 264 266 258 276 288 295 272 237 220 230 309 294 288 280 261 240 229 228 233 242 248 247 235 242 251 259 252 268 260 250 240 250 255 268 280 278 290 278 308 304 293 267 273
235 262 253 260 270 282 304 273 236 212 224 279 297 298 278 255 229 225 222 221 224 231 235 246 251 252 239 253 242 257 273 261 260 260 279 285 284 276 273 292 308 277 241 249
235 229 253 252 260 268 227 269 152 190 194 239 281 272 225 254 216 211 215 218 225 224 226 236 241 223 210 253 259 262 247 263 260 261 285 279 268 267 263 269 297 261 230 227
217 230 234 250 267 279 264 194 180 255 195 225 260 272 269 199 207 193 201 207 209 218 226 227 226 203 224 253 256 264 271 277 266 254 255 277 279 272 263 268 260 217 214 214
206 225 254 273 253 232 240 206 218 267 208 242 240 252 288 282 255 189 186 193 198 215 214 229 220 221 217 231 247 257 272 262 280 272 281 291 278 270 256 238 214 212 213 213
198 223 212 226 204 209 198 176 192 195 211 231 251 266 264 341 316 218 174 187 215 206 203 211 229 243 242 239 244 249 255 256 269 283 282 296 283 308 261 216 213 216 221 218
196 202 227 211 168 186 201 207 192 181 227 219 243 237 240 288 255 253 179 208 208 200 176 201 217 232 168 204 208 209 214 238 250 262 263 287 290 285 270 241 219 221 223 220
199 243 241 165 199 210 220 191 164 203 231 214 234 234 194 233 236 258 236 252 290 205 152 213 241 101 140 161 151 163 206 241 254 262 255 275 295 272 246 214 204 208 216 219
208 260 244 212 200 214 226 200 207 204 199 221 218 198 177 211 223 240 231 215 199 142 186 199 107 131 127 126 128 121 241 242 240 245 285 272 272 234 203 196 190 187 175 165
213 215 238 223 203 221 232 237 329 282 182 136 297 224 180 200 205 306 260 312 268 219 184 126 133 118 116 109 54 60 51 36 87 11 21 89 141 208 140 158 161 149 141 127
237 203 238 224 218 202 242 262 268 252 219 229 270 232 209 179 186 212 263 248 224 41 65 97 108 114 117 66 45 17 20 24 19 32 104 95 80 94 102 122 123 123 123 130
223 229 254 271 284 268 292 290 276 268 219 221 237 248 216 208 189 192 210 194 56 70 82 82 68 76 127 141 154 108 70 57 56 61 90 132 141 113 101 113 119 134 129 152
239 241 248 274 280 275 272 292 278 229 209 217 206 217 195 125 175 176 23 51 95 98 93 82 67 67 90 99 98 76 78 85 79 82 84 115 127 120 111 107 125 137 134 116